This is the latest recevied weather packets stored in our database for station/object KW4UJ. If no packets are shown the sender has not sent any weather packets the latest 10 day(s).
| Time | Temp. | Humidity | Pressure | Rain* | Wind** | Luminosity | Snow |
|---|---|---|---|---|---|---|---|
| 1788263812 | 25° C | 91% | 1017.3 hPa | 0 mm | - | 37 W/m² | - |
| 1788263508 | 24.44° C | 91% | 1017.3 hPa | 0 mm | - | 38 W/m² | - |
| 1788263205 | 24.44° C | 92% | 1017.2 hPa | 0 mm | - | 39 W/m² | - |
| 1788262904 | 24.44° C | 92% | 1017.1 hPa | 0 mm | - | 40 W/m² | - |
| 1788262603 | 24.44° C | 92% | 1017.1 hPa | 0 mm | - | 32 W/m² | - |
| 1788262299 | 23.89° C | 93% | 1016.9 hPa | 0 mm | - | 29 W/m² | - |
| 1788261993 | 23.89° C | 93% | 1017.1 hPa | 0 mm | - | 28 W/m² | - |
| 1788261693 | 23.89° C | 93% | 1017 hPa | 0 mm | - | 27 W/m² | - |
| 1788261392 | 23.89° C | 93% | 1017 hPa | 0 mm | - | 24 W/m² | - |
| 1788261092 | 23.89° C | 94% | 1017.1 hPa | 0 mm | - | 22 W/m² | - |
| 1788260787 | 23.89° C | 94% | 1017.1 hPa | 0 mm | - | 18 W/m² | - |
| 1788260482 | 23.89° C | 94% | 1017 hPa | 0 mm | - | 14 W/m² | - |
| 1788260179 | 23.89° C | 94% | 1017 hPa | 0 mm | - | 11 W/m² | - |
| 1788259878 | 23.33° C | 94% | 1017 hPa | 0 mm | - | 8 W/m² | - |
| 1788259574 | 23.33° C | 95% | 1016.9 hPa | 0 mm | - | 5 W/m² | - |
| 1788259269 | 23.33° C | 95% | 1016.8 hPa | 0 mm | - | 3 W/m² | - |
| 1788258969 | 23.33° C | 95% | 1016.8 hPa | 0 mm | - | 2 W/m² | - |
| 1788258665 | 23.89° C | 95% | 1016.9 hPa | 0 mm | - | 1 W/m² | - |
| 1788258365 | 23.33° C | 95% | 1016.8 hPa | 0 mm | - | 0 W/m² | - |
| 1788258065 | 23.89° C | 95% | 1016.7 hPa | 0 mm | - | 0 W/m² | - |
| 1788257779 | 23.89° C | 95% | 1016.6 hPa | 0 mm | - | 0 W/m² | - |
| 1788257460 | 23.89° C | 95% | 1016.6 hPa | 0 mm | - | 0 W/m² | - |
| 1788257159 | 23.33° C | 95% | 1016.6 hPa | 0 mm | - | 0 W/m² | - |
| 1788256854 | 23.33° C | 95% | 1016.6 hPa | 0 mm | - | 0 W/m² | - |
| 1788256552 | 23.33° C | 95% | 1016.7 hPa | 0 mm | - | 0 W/m² | - |
* Rain latest hour (hover to see other rain measurements)
** Current wind speed in m/s (hover to see current wind gust speed)